Location: Krakow
(50.0830°N, 19.9170°E)
Time: 11:24:54
(UTC+01:00)

Transit 2A - Pass Details

Date: 15 February 2023
Orbit: 591 x 964 km, 66.7° (Epoch: 21 March)

Event Time Altitude Azimuth Distance (km) Brightness Sun altitude
Rises 22:36:25 0° 321° (NW) 3,522 10.1 -49.2°
Enters shadow 22:38:50 10° 318° (NW) 2,644 9.2 -49.4°
Reaches altitude 10° 22:38:54 10° 318° (NW) 2,618 - -49.4°
Maximum altitude 22:44:59 62° 240° (WSW) 1,067 - -49.8°
Drops below altitude 10° 22:51:15 10° 161° (SSE) 2,695 - -50.3°
Sets 22:53:50 0° 158° (SSE) 3,632 - -50.4°
